Showing default

QIANFAN-100, 66042

Orbit data source: Space-Track

QIANFAN-100, 66042 is a Chinese payload satellite in LEO that was launched on Fri, 17 Oct 2025 UTC via a CHANG ZHENG 6A launch vehicle from the Taiyaun Space Center, China (TSC). Payload-class satellites include a variety of spacecraft equipped with specific instruments for various scientific and technological missions. These include communications satellites like Starlink; space stations such as the ISS; scientific satellites like the Hubble; Earth observation satellites from companies like Planet Labs, Umbra, and HawkEye 360; GPS; miniature CubeSats for education and research; and military/defense satellites.

Loading next visibility...
Identifier
66042, 2025-233K
Orbit
LEO
Country
Flag of CNCN / PRC
Related business
Manufacturer
SECM
Mission
Operational Commercial Communications
Bus & Motor
QIANFAN, Unknown motor
Mass
267 kg wet, ~267 kg dry
Launch date (UTC)
2025-10-17 (8 months ago)
Launch vehicle
CHANG ZHENG 6A
Launch site
Taiyaun Space Center, China (TSC)
Object type
Payload
Rocket body
Debris
Shape & HBR
Box + 1 Pan, 14.5 m
Radar Cross Section
13.200 m², Large (>1 m²)

Expand to show TLE details & history
Last TLE update: 10 hours ago

TLE from 10 hours ago
0 QIANFAN-100
1 66042U 25233K   26177.63807777  .00000092  00000-0  12442-3 0  9998
2 66042  89.0013  42.1661 0001821  84.0973 276.0385 13.50999611 34512
Epoch: 2026-06-26T15:18Z
TLE epoch observation values (Epoch: 2026-06-26T15:18:49.919Z)
Latitude
-0.00008°
Longitude
-102.30561°
Altitude
1,071.394 km
Speed
7.316 km/s
True Right ascension
02h 48m 39s
True Declination
0° 00' 00"
Sunlit
Object was in daylight at epoch
Visualization orbit readout
Latitude
Unknown
Longitude
Unknown
Altitude
Unknown
Speed
Unknown
Apparent Right ascension
Unknown
Apparent Declination
Unknown
Sunlit
N/A
Visualization observer readout
Local Sidereal Time
12:12:21
Azimuth
Unknown
Elevation
Unknown
Doppler factor
Unknown
Orbital elements
Apogee altitude
1,066.99 km
Perigee altitude
1,064.279 km
Semi-major axis
7,443.771 km
Eccentricity
0.00018
Inclination
89.0013°
RAAN
42.1661°
Arg. of periapsis
84.0973°
True anomaly
276.01775°
Mean anomaly
276.0385°
Eccentric anomaly
276.02812°
Mean motion
3.37951 °/min
Orbital period
106.52 mins
BSTAR
0.00012442
Loading maneuver chart data...
Computing Atmospheric mass density...
Loading historical data...
Loading historical data...
Loading historical data...
Loading historical data...
Loading historical data...
Loading historical data...
Loading historical data...

Documentation

Showing up to 5 results
|